Regional Weather Roundup
Issued by NWS Upton, NY

Current Version | Previous Version | Text Only | Print | Product List | Glossary Off
Versions: 1 2 3 4 5 6 7 8 9 10 11 12 13 14 15 16 17 18 19 20 21 22 23 24 25 26 27 28 29 30 31 32 33 34 35 36 37 38 39 40 41 42 43 44 45 46 47 48 49 50
000 ASUS41 KOKX 102108 RWROKX REGIONAL WEATHER ROUNDUP NATIONAL WEATHER SERVICE NEW YORK NY 400 PM EST SUN DEC 10 2017 NOTE: "FAIR" INDICATES FEW OR NO CLOUDS BELOW 12,000 FEET WITH NO SIGNIFICANT WEATHER AND/OR OBSTRUCTIONS TO VISIBILITY. NYZ071-072-176-178-NJZ106-104-102200- NEW YORK CITY METRO AREA CITY SKY/WX TMP DP RH WIND PRES REMARKS Central Park CLOUDY 38 22 52 W9G22 29.96R WCI 31 Bronx Bot Gard N/A 37 23 56 W13 29.95R WCI 29 Bronx Lehman C N/A 37 25 60 W7 N/A WCI 32 LaGuardia APRT MOCLDY 39 22 50 W15G23 29.95R WCI 31 Queens College N/A 39 25 56 W12 N/A WCI 32 Kennedy INTL MOCLDY 38 24 57 W22 29.97R WCI 27 Breezy Point N/A 37 N/A N/A W14G22 N/A WCI 29 Brooklyn Coll N/A 39 23 52 SW12 N/A WCI 32 Staten Island N/A 37 23 56 W13 N/A WCI 29 Newark/Liberty MOCLDY 38 23 55 SW13 29.96R WCI 30 Teterboro CLOUDY 38 23 55 W10 29.94R WCI 31 $$ NYZ177-179-078>081-102200- LONG ISLAND NEW YORK CITY SKY/WX TMP DP RH WIND PRES REMARKS Jones Beach N/A 37 N/A N/A W18G24 N/A WCI 27 Wantagh N/A 37 23 56 W13 N/A WCI 29 Matinecock PT N/A 39 N/A N/A W23 N/A WCI 29 Farmingdale PTCLDY 37 24 59 W14 29.94R WCI 28 MacArthur/ISP PTCLDY 37 25 61 W8 29.93R WCI 31 Shirley CLEAR 38 25 59 W12 29.94R WCI 30 Mt Sinai Harb N/A N/A N/A N/A W5 N/A Westhampton CLEAR 37 24 59 W8 29.94R WCI 31 East Hampton FAIR 37 25 63 W7 29.92R WCI 31 Southold N/A 39 27 60 W7 N/A WCI 34 Montauk N/A 41 27 57 W14G24 29.92R $$ NYZ052-065-067-102200- HUDSON VALLEY CITY SKY/WX TMP DP RH WIND PRES REMARKS White Plains MOCLDY 36 22 56 W7 29.90R WCI 30 Larchmont Harb N/A 37 N/A N/A SW15G22 N/A WCI 28 Croton On Huds N/A 39 N/A N/A SW15G21 N/A WCI 31 Somers N/A 36 21 55 W3 N/A Brewster N/A 34 23 64 W3 N/A Newburgh CLOUDY 36 25 64 W12 29.90R WCI 27 Montgomery CLOUDY 36 22 56 SW8 29.88R WCI 30 Otisville N/A 34 23 64 W6 N/A WCI 29 Warwick N/A 36 23 60 W9 N/A WCI 29 Suffern N/A 36 21 55 W6 N/A WCI 31 Poughkeepsie CLOUDY 36 21 54 SW8 29.90R WCI 30 Albany MOCLDY 34 21 59 W7 29.87R WCI 28 $$ NJZ001-105-106-008-010-013-015-019>022-104-102200- NEW JERSEY CITY SKY/WX TMP DP RH WIND PRES REMARKS Newark/Liberty MOCLDY 38 23 55 SW13 29.96R WCI 30 Teterboro CLOUDY 38 23 55 W10 29.94R WCI 31 Caldwell MOCLDY 37 22 54 VRB5G17 29.95R WCI 33 Somerville CLOUDY 37 22 54 VRB3 29.95R Linden CLOUDY 37 22 54 CALM 29.96R Perth Amboy N/A 37 N/A N/A W14G20 N/A WCI 29 Sussex CLOUDY 36 22 56 SW5 29.91R WCI 32 Andover NOT AVBL Trenton PTCLDY 36 21 54 W8 29.97S WCI 30 Millville MOCLDY 38 26 62 W14 30.02R WCI 30 Atlantic City MOCLDY 39 25 57 W8 30.01R WCI 33 Wrightstown PTCLDY 36 22 57 W7 29.96R WCI 31 Toms River CLOUDY 36 26 67 W6 30.00R WCI 31 Belmar CLOUDY 36 23 59 W7 29.99R WCI 30 $$ PAZ047>061-062-071-102200- EASTERN PENNSYLVANIA CITY SKY/WX TMP DP RH WIND PRES REMARKS Philadelphia MOCLDY 38 21 50 W14 30.01R WCI 30 Allentown CLOUDY 35 22 58 W9 29.95R WCI 28 Scranton CLOUDY 32 21 64 SW12 29.89R WCI 23 $$ CTZ002-004>006-009-010-012-RIZ004-006-007-MAZ004-011-015-102200- SOUTHERN NEW ENGLAND IN CT CITY SKY/WX TMP DP RH WIND PRES REMARKS Bradley INTL MOCLDY 35 23 61 SW7 29.88R WCI 29 Hartford CLOUDY 37 23 56 SW3 29.90R Danbury CLOUDY 35 23 61 SW5 29.91R WCI 31 Wtrbury/Oxford MOCLDY 33 20 58 W8 29.88R WCI 26 Norwalk Harbor N/A 37 N/A N/A W16 N/A WCI 28 Bridgeport CLOUDY 38 23 55 W10 29.92R WCI 31 Meriden PTCLDY 36 21 54 SW8 29.91R WCI 30 New Haven MOCLDY 39 22 50 W7 29.92R WCI 34 Chester FAIR 37 19 48 VRB6G14 29.89R WCI 33 Groton CLEAR 38 22 52 W9 29.90R WCI 31 Wilimantic MOCLDY 37 23 56 SW5 29.89R WCI 33 IN RI CITY SKY/WX TMP DP RH WIND PRES REMARKS Providence PTCLDY 36 25 64 W6 29.89R WCI 31 Block Island N/A N/A N/A N/A MISG N/A Westerly CLEAR 39 23 52 W5 29.90R IN MA CITY SKY/WX TMP DP RH WIND PRES REMARKS Boston MOCLDY 36 24 62 W8G20 29.86R WCI 30 Worcester MOCLDY 31 18 58 W16 29.81R WCI 20 Westfield CLOUDY 35 21 56 W7 29.86R WCI 29 Provincetown PTCLDY 38 27 64 W14 29.87R WCI 30 Nantucket CLEAR 38 29 70 W9 29.89R WCI 31 $$ ANZ330-335-338-340-345-350-353-355-102200- COASTAL MARINE OBSERVATIONS STATION/POSITION TIME SKY/WX TEMP WIND PRES VSBY WAVE AIR SEA DIR/SP/G HT/PER (UTC) (F) (DEG/KT/KT) (MB) (MI) (FT/S) NY HARB ENTRANCE 1950 40 52 270/ 19/ 23 1013.0 4/10 20 S FIRE ISLAND 1950 40 53 270/ 17/ 21 1013.5 5/ 5 GREAT SOUTH BAY 2030 39 45 270/ 14/ 16 N/A HUDSON CANYON 1950 42 56 280/ 19/ 23 1013.7 8/ 6 KINGS POINT 2024 39 47 290/ 15/ 19 1014.4 EXECUTION ROCKS 2030 41 220/ 17/ 23 N/A WESTERN LI SOUND 1949 40 250/ 16/ 21 N/A 2/ 3 CENTRAL LI SOUND 2015 41 280/ 17/ 25 N/A 3 ROBBINS REEF 2042 39 260/ 16/ 22 1014.7 $$ >>>>>>>>>>>>>>>>>>>>>>>>>>>> KEY <<<<<<<<<<<<<<<<<<<<<<<<<<< > < > SKY/WX - Sky Condition/Present Weather < > TMP - Temperature in Fahrenheit < > DP - Dew Point in Fahrenheit < > RH - Relative Humidity in Percent < > WIND - Direction (from) and Speed in MPH < > PRES - Mean Sea Level Pressure (inches of Hg) < > WCI - Wind Chill Index < > VSB - VISIBILITY IN MILES < > HX - HEAT INDEX < > TC - TEMPERATURE IN CELSIUS < > VRB - VARIABLE WIND DIRECTION < > < >>>>>>>>>>>>>>>>>>>>>>>>>>>> KEY <<<<<<<<<<<<<<<<<<<<<<<<<<<

USA.gov is the U.S. government's official web portal to all federal, state and local government web resources and services.